QPF
0.00 0.00 0.00 0.00 0.00 0.00 0.00 0.00 0.00 0.00 0.00 0.00 0.00 0.00 0.00 0.00 0.00 0.00 0.00 0.00 0.00 0.00 0.00 0.01 0.02 0.03 0.04 0.03 0.02 0.02 0.03 0.03 0.03 0.03 0.03 0.03 0.02 0.02 0.01 0.01 0.01 0.01 0.01 0.01 0.02 0.02 0.01 0.01 0.02
0.00 0.00 0.00 0.00 0.00 0.00 0.00 0.00 0.00 0.00 0.00 0.00 0.00 0.00 0.00 0.00 0.00 0.00 0.00 0.00 0.00 0.00 0.01 0.01 0.01 0.03 0.04 0.03 0.03 0.03 0.03 0.03 0.03 0.04 0.03 0.03 0.02 0.02 0.01 0.01 0.01 0.01 0.01 0.01 0.02 0.03 0.02 0.01 0.01
0.00 0.00 0.00 0.00 0.00 0.00 0.00 0.00 0.00 0.00 0.00 0.00 0.00 0.00 0.00 0.00 0.00 0.00 0.00 0.00 0.00 0.00 0.01 0.01 0.02 0.03 0.04 0.03 0.02 0.03 0.02 0.02 0.02 0.03 0.03 0.03 0.03 0.02 0.01 0.01 0.01 0.01 0.00 0.01 0.01 0.02 0.02 0.02 0.01
0.00 0.00 0.00 0.00 0.00 0.00 0.00 0.00 0.00 0.00 0.00 0.00 0.00 0.00 0.00 0.00 0.00 0.00 0.00 0.00 0.00 0.00 0.00 0.01 0.02 0.03 0.03 0.03 0.02 0.02 0.02 0.02 0.02 0.02 0.03 0.04 0.03 0.02 0.02 0.01 0.01 0.01 0.00 0.00 0.00 0.01 0.01 0.02 0.01
0.00 0.00 0.00 0.00 0.00 0.00 0.00 0.00 0.00 0.00 0.00 0.00 0.00 0.00 0.00 0.00 0.00 0.00 0.00 0.00 0.00 0.01 0.01 0.01 0.02 0.03 0.04 0.03 0.03 0.03 0.04 0.04 0.03 0.02 0.04 0.05 0.05 0.03 0.02 0.02 0.01 0.01 0.00 0.00 0.00 0.00 0.00 0.01 0.02
0.00 0.00 0.00 0.00 0.00 0.00 0.00 0.00 0.00 0.00 0.00 0.00 0.00 0.00 0.00 0.00 0.00 0.00 0.00 0.00 0.01 0.01 0.01 0.02 0.02 0.03 0.05 0.05 0.05 0.04 0.04 0.05 0.04 0.04 0.04 0.05 0.05 0.04 0.02 0.02 0.01 0.01 0.00 0.01 0.01 0.00 0.00 0.00 0.01
0.00 0.00 0.00 0.00 0.00 0.00 0.00 0.00 0.00 0.00 0.00 0.00 0.00 0.00 0.00 0.00 0.00 0.00 0.00 0.01 0.01 0.03 0.02 0.02 0.02 0.02 0.04 0.05 0.05 0.05 0.05 0.06 0.07 0.06 0.06 0.04 0.03 0.03 0.03 0.03 0.02 0.01 0.01 0.01 0.01 0.01 0.01 0.00 0.00
0.00 0.00 0.00 0.00 0.00 0.00 0.00 0.00 0.00 0.00 0.00 0.00 0.00 0.00 0.00 0.00 0.00 0.00 0.01 0.02 0.02 0.02 0.02 0.02 0.02 0.02 0.03 0.04 0.04 0.04 0.05 0.06 0.07 0.07 0.07 0.04 0.02 0.02 0.02 0.02 0.02 0.01 0.01 0.01 0.01 0.01 0.01 0.01 0.01
0.00 0.00 0.00 0.00 0.00 0.00 0.00 0.00 0.00 0.00 0.00 0.00 0.00 0.00 0.00 0.00 0.00 0.01 0.01 0.02 0.03 0.04 0.03 0.02 0.03 0.04 0.04 0.04 0.04 0.03 0.05 0.06 0.07 0.09 0.10 0.07 0.04 0.03 0.02 0.01 0.01 0.01 0.01 0.01 0.01 0.01 0.01 0.01 0.01
0.01 0.00 0.00 0.00 0.00 0.00 0.00 0.00 0.00 0.00 0.00 0.00 0.00 0.00 0.00 0.00 0.00 0.01 0.01 0.01 0.02 0.03 0.04 0.04 0.04 0.05 0.05 0.04 0.03 0.03 0.04 0.08 0.08 0.10 0.11 0.10 0.07 0.05 0.03 0.02 0.01 0.01 0.01 0.01 0.02 0.01 0.01 0.01 0.01
0.01 0.00 0.00 0.00 0.00 0.00 0.00 0.00 0.00 0.00 0.00 0.00 0.00 0.00 0.00 0.00 0.00 0.01 0.01 0.01 0.01 0.01 0.02 0.04 0.05 0.06 0.07 0.07 0.06 0.04 0.04 0.07 0.11 0.09 0.10 0.09 0.07 0.06 0.05 0.03 0.02 0.02 0.01 0.01 0.01 0.01 0.01 0.01 0.01
0.00 0.00 0.00 0.00 0.00 0.00 0.00 0.00 0.00 0.00 0.00 0.00 0.00 0.00 0.00 0.00 0.00 0.00 0.01 0.01 0.01 0.01 0.01 0.02 0.04 0.06 0.07 0.08 0.09 0.07 0.05 0.06 0.11 0.12 0.09 0.09 0.07 0.05 0.03 0.02 0.01 0.02 0.02 0.01 0.01 0.01 0.00 0.00 0.01
0.00 0.00 0.00 0.00 0.00 0.00 0.00 0.00 0.00 0.00 0.00 0.00 0.00 0.00 0.00 0.00 0.00 0.00 0.00 0.01 0.02 0.02 0.01 0.02 0.03 0.05 0.07 0.08 0.09 0.10 0.08 0.07 0.10 0.13 0.12 0.10 0.07 0.04 0.04 0.03 0.02 0.02 0.02 0.01 0.01 0.01 0.01 0.00 0.00
0.00 0.00 0.00 0.00 0.00 0.00 0.00 0.00 0.00 0.00 0.00 0.00 0.00 0.00 0.00 0.00 0.00 0.00 0.00 0.01 0.01 0.02 0.02 0.02 0.04 0.05 0.05 0.07 0.08 0.09 0.08 0.07 0.07 0.09 0.12 0.11 0.08 0.06 0.04 0.03 0.02 0.02 0.01 0.01 0.01 0.01 0.01 0.01 0.01
0.01 0.00 0.00 0.00 0.00 0.00 0.00 0.00 0.00 0.00 0.00 0.00 0.00 0.00 0.00 0.00 0.00 0.00 0.00 0.00 0.01 0.01 0.02 0.03 0.05 0.06 0.05 0.07 0.09 0.08 0.09 0.08 0.07 0.08 0.10 0.10 0.08 0.06 0.04 0.03 0.02 0.02 0.02 0.02 0.01 0.01 0.01 0.02 0.01
0.01 0.01 0.01 0.00 0.00 0.00 0.00 0.00 0.00 0.00 0.00 0.00 0.00 0.00 0.00 0.00 0.00 0.00 0.00 0.00 0.00 0.01 0.01 0.02 0.05 0.09 0.08 0.07 0.08 0.09 0.08 0.06 0.06 0.07 0.09 0.10 0.09 0.07 0.04 0.03 0.02 0.02 0.02 0.02 0.01 0.01 0.01 0.01 0.02
0.01 0.01 0.00 0.00 0.00 0.00 0.00 0.00 0.00 0.00 0.00 0.00 0.00 0.00 0.00 0.00 0.00 0.00 0.00 0.00 0.00 0.00 0.01 0.02 0.03 0.06 0.08 0.07 0.08 0.07 0.07 0.06 0.06 0.07 0.07 0.09 0.09 0.08 0.05 0.04 0.03 0.03 0.03 0.02 0.01 0.01 0.01 0.01 0.02
0.00 0.00 0.00 0.00 0.00 0.00 0.01 0.00 0.00 0.00 0.00 0.00 0.00 0.00 0.00 0.00 0.00 0.00 0.00 0.00 0.00 0.00 0.01 0.01 0.02 0.04 0.06 0.07 0.08 0.08 0.06 0.06 0.07 0.09 0.09 0.10 0.10 0.09 0.07 0.06 0.04 0.03 0.03 0.03 0.02 0.01 0.01 0.01 0.01
0.01 0.01 0.00 0.00 0.00 0.00 0.00 0.00 0.00 0.00 0.00 0.00 0.00 0.00 0.00 0.00 0.00 0.00 0.00 0.00 0.00 0.00 0.00 0.01 0.01 0.01 0.03 0.05 0.06 0.07 0.07 0.06 0.07 0.10 0.12 0.10 0.10 0.10 0.08 0.05 0.03 0.03 0.03 0.03 0.02 0.02 0.01 0.01 0.01
0.00 0.00 0.00 0.00 0.00 0.00 0.00 0.00 0.00 0.00 0.00 0.00 0.00 0.00 0.00 0.00 0.00 0.00 0.00 0.00 0.00 0.00 0.00 0.00 0.01 0.01 0.02 0.03 0.04 0.05 0.06 0.05 0.06 0.09 0.13 0.14 0.11 0.10 0.08 0.06 0.04 0.03 0.02 0.02 0.02 0.01 0.01 0.01 0.01
0.00 0.00 0.00 0.00 0.00 0.00 0.00 0.00 0.00 0.00 0.00 0.00 0.00 0.00 0.00 0.00 0.00 0.00 0.00 0.00 0.00 0.00 0.00 0.00 0.00 0.01 0.02 0.02 0.03 0.04 0.04 0.04 0.05 0.09 0.11 0.14 0.14 0.12 0.10 0.07 0.05 0.05 0.04 0.02 0.02 0.02 0.01 0.01 0.01
0.00 0.00 0.00 0.00 0.00 0.00 0.00 0.00 0.00 0.00 0.00 0.00 0.00 0.00 0.00 0.00 0.01 0.00 0.00 0.00 0.00 0.00 0.00 0.01 0.01 0.01 0.02 0.02 0.03 0.03 0.03 0.03 0.04 0.07 0.08 0.10 0.11 0.11 0.10 0.07 0.05 0.04 0.05 0.04 0.03 0.02 0.02 0.02 0.02
0.00 0.00 0.00 0.00 0.00 0.00 0.00 0.00 0.00 0.00 0.00 0.00 0.00 0.00 0.01 0.01 0.00 0.01 0.01 0.01 0.01 0.00 0.00 0.01 0.01 0.02 0.02 0.03 0.03 0.03 0.03 0.03 0.04 0.06 0.07 0.08 0.07 0.07 0.07 0.07 0.04 0.02 0.03 0.03 0.04 0.03 0.03 0.03 0.03
0.00 0.00 0.00 0.00 0.01 0.01 0.00 0.00 0.00 0.00 0.00 0.00 0.01 0.01 0.01 0.01 0.01 0.01 0.02 0.02 0.01 0.01 0.01 0.01 0.01 0.02 0.02 0.03 0.03 0.02 0.03 0.03 0.04 0.05 0.05 0.06 0.06 0.04 0.05 0.06 0.06 0.03 0.01 0.01 0.02 0.02 0.03 0.04 0.04
0.01 0.01 0.01 0.01 0.01 0.00 0.00 0.00 0.00 0.00 0.00 0.00 0.01 0.01 0.01 0.01 0.01 0.02 0.02 0.02 0.01 0.01 0.01 0.01 0.01 0.02 0.02 0.02 0.02 0.02 0.02 0.02 0.02 0.03 0.03 0.04 0.04 0.03 0.03 0.05 0.06 0.05 0.02 0.02 0.02 0.02 0.02 0.02 0.03
0.01 0.01 0.01 0.01 0.00 0.00 0.00 0.00 0.00 0.00 0.00 0.00 0.01 0.01 0.01 0.01 0.01 0.02 0.01 0.01 0.01 0.01 0.02 0.02 0.02 0.01 0.01 0.01 0.01 0.01 0.01 0.01 0.01 0.01 0.02 0.02 0.03 0.03 0.03 0.03 0.04 0.06 0.05 0.03 0.03 0.03 0.03 0.03 0.02
0.01 0.01 0.01 0.02 0.01 0.00 0.00 0.00 0.00 0.00 0.00 0.00 0.00 0.01 0.01 0.01 0.01 0.02 0.02 0.02 0.02 0.02 0.03 0.03 0.02 0.01 0.01 0.01 0.01 0.01 0.00 0.00 0.00 0.01 0.01 0.01 0.02 0.03 0.03 0.03 0.03 0.05 0.06 0.06 0.04 0.03 0.03 0.03 0.02
0.00 0.00 0.01 0.03 0.02 0.01 0.01 0.01 0.01 0.00 0.00 0.00 0.00 0.01 0.01 0.01 0.02 0.02 0.02 0.02 0.02 0.03 0.02 0.02 0.01 0.01 0.01 0.01 0.01 0.01 0.01 0.00 0.00 0.00 0.00 0.01 0.01 0.01 0.01 0.02 0.02 0.03 0.04 0.06 0.06 0.05 0.04 0.03 0.02
0.01 0.01 0.01 0.02 0.02 0.02 0.01 0.01 0.01 0.00 0.00 0.01 0.01 0.01 0.01 0.01 0.02 0.02 0.02 0.02 0.02 0.02 0.01 0.01 0.01 0.00 0.00 0.01 0.01 0.01 0.01 0.01 0.00 0.00 0.00 0.00 0.00 0.00 0.01 0.01 0.02 0.02 0.03 0.04 0.05 0.06 0.05 0.03 0.02
0.01 0.01 0.01 0.01 0.01 0.01 0.01 0.01 0.00 0.00 0.00 0.01 0.01 0.01 0.02 0.02 0.01 0.01 0.01 0.01 0.01 0.01 0.01 0.01 0.00 0.00 0.01 0.01 0.01 0.00 0.01 0.01 0.00 0.00 0.00 0.01 0.01 0.00 0.01 0.01 0.02 0.02 0.03 0.02 0.03 0.03 0.04 0.03 0.02
MSLP
1015.25 1014.95 1014.85 1014.98 1015.31 1015.78 1016.30 1016.76 1017.10 1017.29 1017.35 1017.33 1017.32 1017.38 1017.55 1017.81 1018.10 1018.35 1018.46 1018.36 1018.03 1017.51 1016.88 1016.24 1015.70 1015.35 1015.20 1015.26 1015.45 1015.72 1016.00 1016.22 1016.38 1016.48 1016.56 1016.65 1016.77 1016.92 1017.09 1017.26 1017.38 1017.47 1017.51 1017.53 1017.56 1017.62 1017.74 1017.91 1018.10
1015.38 1015.11 1015.06 1015.24 1015.63 1016.15 1016.72 1017.22 1017.61 1017.84 1017.94 1017.96 1017.98 1018.05 1018.21 1018.42 1018.65 1018.80 1018.79 1018.58 1018.14 1017.54 1016.85 1016.18 1015.65 1015.32 1015.21 1015.31 1015.54 1015.85 1016.15 1016.39 1016.56 1016.68 1016.76 1016.85 1016.97 1017.12 1017.28 1017.44 1017.56 1017.64 1017.69 1017.72 1017.78 1017.87 1018.01 1018.20 1018.39
1015.53 1015.29 1015.28 1015.51 1015.94 1016.50 1017.09 1017.62 1018.04 1018.30 1018.43 1018.48 1018.52 1018.60 1018.74 1018.92 1019.08 1019.15 1019.05 1018.74 1018.24 1017.59 1016.87 1016.21 1015.69 1015.39 1015.30 1015.42 1015.67 1015.97 1016.27 1016.51 1016.69 1016.81 1016.90 1017.00 1017.13 1017.28 1017.45 1017.60 1017.73 1017.82 1017.88 1017.94 1018.03 1018.15 1018.31 1018.51 1018.70
1015.66 1015.47 1015.50 1015.77 1016.23 1016.81 1017.41 1017.95 1018.38 1018.65 1018.80 1018.87 1018.92 1019.00 1019.12 1019.26 1019.37 1019.38 1019.22 1018.88 1018.35 1017.70 1017.00 1016.36 1015.88 1015.59 1015.51 1015.61 1015.84 1016.11 1016.37 1016.58 1016.73 1016.84 1016.94 1017.05 1017.19 1017.36 1017.54 1017.71 1017.86 1017.97 1018.07 1018.16 1018.28 1018.43 1018.62 1018.83 1019.03
1015.81 1015.66 1015.75 1016.05 1016.52 1017.10 1017.70 1018.23 1018.64 1018.91 1019.06 1019.13 1019.19 1019.26 1019.35 1019.47 1019.54 1019.51 1019.34 1018.99 1018.49 1017.88 1017.23 1016.65 1016.20 1015.93 1015.84 1015.91 1016.06 1016.26 1016.45 1016.60 1016.71 1016.80 1016.89 1017.01 1017.16 1017.35 1017.55 1017.75 1017.92 1018.07 1018.21 1018.34 1018.50 1018.70 1018.92 1019.15 1019.34
1015.99 1015.92 1016.05 1016.37 1016.86 1017.42 1017.99 1018.49 1018.87 1019.12 1019.25 1019.32 1019.36 1019.42 1019.49 1019.58 1019.63 1019.59 1019.42 1019.11 1018.66 1018.12 1017.56 1017.05 1016.65 1016.39 1016.28 1016.28 1016.35 1016.46 1016.55 1016.61 1016.66 1016.71 1016.78 1016.89 1017.05 1017.25 1017.47 1017.70 1017.90 1018.09 1018.26 1018.45 1018.65 1018.89 1019.14 1019.39 1019.61
1016.29 1016.28 1016.46 1016.81 1017.28 1017.82 1018.34 1018.79 1019.13 1019.34 1019.45 1019.49 1019.51 1019.55 1019.60 1019.66 1019.69 1019.65 1019.50 1019.24 1018.86 1018.41 1017.95 1017.51 1017.17 1016.92 1016.78 1016.72 1016.70 1016.70 1016.68 1016.66 1016.63 1016.63 1016.67 1016.77 1016.92 1017.12 1017.34 1017.57 1017.79 1018.00 1018.21 1018.44 1018.68 1018.96 1019.25 1019.53 1019.76
1016.75 1016.81 1017.03 1017.39 1017.84 1018.32 1018.78 1019.17 1019.45 1019.61 1019.69 1019.70 1019.70 1019.71 1019.74 1019.77 1019.78 1019.73 1019.61 1019.39 1019.08 1018.72 1018.34 1017.99 1017.69 1017.46 1017.30 1017.18 1017.08 1016.99 1016.88 1016.78 1016.69 1016.63 1016.63 1016.70 1016.82 1016.99 1017.19 1017.40 1017.62 1017.83 1018.06 1018.30 1018.58 1018.89 1019.21 1019.52 1019.78
1017.38 1017.50 1017.74 1018.09 1018.50 1018.92 1019.31 1019.62 1019.83 1019.95 1019.99 1019.98 1019.96 1019.94 1019.94 1019.95 1019.93 1019.88 1019.76 1019.57 1019.31 1019.02 1018.71 1018.42 1018.17 1017.96 1017.78 1017.62 1017.47 1017.31 1017.15 1016.99 1016.85 1016.75 1016.71 1016.74 1016.81 1016.93 1017.08 1017.25 1017.42 1017.61 1017.82 1018.07 1018.37 1018.69 1019.03 1019.36 1019.65
1018.14 1018.30 1018.55 1018.86 1019.21 1019.56 1019.86 1020.09 1020.24 1020.31 1020.32 1020.30 1020.26 1020.23 1020.22 1020.20 1020.16 1020.09 1019.96 1019.79 1019.56 1019.31 1019.05 1018.80 1018.58 1018.38 1018.19 1018.02 1017.84 1017.65 1017.46 1017.28 1017.12 1017.00 1016.93 1016.90 1016.93 1016.98 1017.05 1017.14 1017.25 1017.38 1017.56 1017.79 1018.07 1018.40 1018.74 1019.08 1019.39
1018.93 1019.10 1019.33 1019.60 1019.88 1020.13 1020.34 1020.49 1020.58 1020.61 1020.61 1020.59 1020.56 1020.54 1020.52 1020.49 1020.44 1020.35 1020.22 1020.04 1019.83 1019.59 1019.35 1019.12 1018.91 1018.71 1018.53 1018.35 1018.16 1017.98 1017.79 1017.61 1017.46 1017.34 1017.25 1017.19 1017.15 1017.13 1017.12 1017.11 1017.14 1017.20 1017.32 1017.51 1017.76 1018.07 1018.41 1018.74 1019.05
1019.63 1019.79 1019.98 1020.19 1020.38 1020.54 1020.66 1020.73 1020.77 1020.78 1020.77 1020.77 1020.77 1020.78 1020.79 1020.78 1020.74 1020.65 1020.51 1020.32 1020.11 1019.87 1019.63 1019.40 1019.18 1018.98 1018.79 1018.61 1018.43 1018.26 1018.10 1017.95 1017.82 1017.72 1017.63 1017.55 1017.47 1017.37 1017.28 1017.18 1017.12 1017.10 1017.15 1017.29 1017.50 1017.77 1018.09 1018.40 1018.69
1020.13 1020.26 1020.40 1020.53 1020.63 1020.70 1020.73 1020.74 1020.73 1020.72 1020.73 1020.77 1020.83 1020.90 1020.96 1020.99 1020.99 1020.92 1020.80 1020.62 1020.40 1020.16 1019.91 1019.67 1019.43 1019.21 1019.01 1018.82 1018.64 1018.49 1018.35 1018.24 1018.15 1018.08 1018.00 1017.92 1017.80 1017.66 1017.50 1017.33 1017.19 1017.10 1017.09 1017.17 1017.33 1017.57 1017.84 1018.13 1018.39
1020.35 1020.45 1020.54 1020.60 1020.62 1020.60 1020.55 1020.49 1020.44 1020.43 1020.47 1020.55 1020.67 1020.82 1020.97 1021.08 1021.15 1021.14 1021.06 1020.91 1020.71 1020.47 1020.22 1019.95 1019.70 1019.45 1019.22 1019.01 1018.82 1018.67 1018.55 1018.47 1018.41 1018.37 1018.31 1018.23 1018.11 1017.95 1017.75 1017.54 1017.34 1017.20 1017.13 1017.16 1017.29 1017.48 1017.72 1017.96 1018.18
1020.33 1020.41 1020.45 1020.45 1020.40 1020.30 1020.18 1020.06 1019.97 1019.95 1020.00 1020.13 1020.33 1020.57 1020.81 1021.03 1021.18 1021.26 1021.26 1021.17 1021.01 1020.80 1020.55 1020.28 1020.00 1019.72 1019.45 1019.21 1019.00 1018.83 1018.71 1018.63 1018.59 1018.57 1018.54 1018.47 1018.36 1018.19 1017.98 1017.74 1017.52 1017.35 1017.26 1017.26 1017.34 1017.50 1017.70 1017.90 1018.08
1020.16 1020.23 1020.25 1020.21 1020.10 1019.93 1019.74 1019.55 1019.41 1019.36 1019.42 1019.59 1019.85 1020.17 1020.52 1020.84 1021.11 1021.29 1021.38 1021.37 1021.27 1021.11 1020.89 1020.63 1020.34 1020.04 1019.74 1019.46 1019.21 1019.00 1018.86 1018.76 1018.72 1018.69 1018.67 1018.62 1018.52 1018.37 1018.16 1017.93 1017.71 1017.53 1017.43 1017.40 1017.47 1017.60 1017.76 1017.93 1018.07
1019.99 1020.07 1020.09 1020.02 1019.86 1019.63 1019.35 1019.08 1018.87 1018.78 1018.81 1018.99 1019.30 1019.70 1020.13 1020.56 1020.94 1021.23 1021.42 1021.51 1021.49 1021.39 1021.22 1020.98 1020.71 1020.40 1020.08 1019.77 1019.48 1019.23 1019.04 1018.91 1018.83 1018.78 1018.75 1018.70 1018.61 1018.47 1018.29 1018.08 1017.87 1017.70 1017.59 1017.56 1017.60 1017.71 1017.85 1017.99 1018.10
1019.95 1020.06 1020.09 1020.01 1019.80 1019.49 1019.12 1018.75 1018.45 1018.28 1018.27 1018.44 1018.77 1019.21 1019.72 1020.24 1020.71 1021.10 1021.39 1021.57 1021.63 1021.61 1021.49 1021.31 1021.07 1020.78 1020.46 1020.13 1019.81 1019.52 1019.28 1019.10 1018.97 1018.89 1018.83 1018.76 1018.67 1018.54 1018.37 1018.18 1017.98 1017.82 1017.71 1017.67 1017.70 1017.78 1017.90 1018.02 1018.11
1020.15 1020.30 1020.34 1020.23 1019.96 1019.55 1019.07 1018.58 1018.16 1017.90 1017.82 1017.96 1018.29 1018.77 1019.33 1019.92 1020.47 1020.94 1021.30 1021.55 1021.69 1021.73 1021.69 1021.57 1021.38 1021.13 1020.84 1020.53 1020.20 1019.89 1019.60 1019.37 1019.18 1019.04 1018.94 1018.84 1018.73 1018.59 1018.42 1018.24 1018.05 1017.88 1017.77 1017.71 1017.72 1017.78 1017.88 1017.98 1018.05
1020.59 1020.78 1020.81 1020.66 1020.30 1019.78 1019.15 1018.52 1017.97 1017.59 1017.45 1017.54 1017.87 1018.37 1018.98 1019.62 1020.23 1020.76 1021.18 1021.48 1021.67 1021.76 1021.77 1021.71 1021.59 1021.41 1021.18 1020.91 1020.60 1020.29 1019.98 1019.70 1019.46 1019.27 1019.10 1018.95 1018.81 1018.65 1018.47 1018.27 1018.08 1017.91 1017.77 1017.69 1017.66 1017.69 1017.76 1017.83 1017.89
1021.22 1021.42 1021.42 1021.19 1020.72 1020.04 1019.25 1018.46 1017.77 1017.28 1017.07 1017.14 1017.47 1018.00 1018.66 1019.35 1020.01 1020.58 1021.02 1021.35 1021.56 1021.68 1021.73 1021.73 1021.68 1021.58 1021.42 1021.22 1020.97 1020.68 1020.37 1020.07 1019.79 1019.54 1019.32 1019.12 1018.93 1018.73 1018.53 1018.31 1018.10 1017.90 1017.73 1017.61 1017.54 1017.52 1017.54 1017.58 1017.61
1021.90 1022.08 1022.02 1021.68 1021.06 1020.21 1019.24 1018.28 1017.45 1016.87 1016.61 1016.67 1017.03 1017.62 1018.34 1019.10 1019.80 1020.39 1020.85 1021.17 1021.38 1021.51 1021.58 1021.62 1021.62 1021.60 1021.54 1021.42 1021.24 1021.00 1020.73 1020.43 1020.12 1019.83 1019.56 1019.31 1019.07 1018.84 1018.61 1018.37 1018.12 1017.89 1017.68 1017.50 1017.38 1017.30 1017.26 1017.25 1017.25
1022.51 1022.64 1022.48 1022.00 1021.21 1020.17 1019.02 1017.90 1016.95 1016.30 1016.02 1016.11 1016.53 1017.19 1017.99 1018.82 1019.58 1020.19 1020.65 1020.96 1021.14 1021.25 1021.32 1021.38 1021.43 1021.48 1021.50 1021.47 1021.38 1021.21 1020.98 1020.71 1020.40 1020.09 1019.78 1019.50 1019.23 1018.97 1018.71 1018.44 1018.17 1017.90 1017.65 1017.42 1017.22 1017.07 1016.97 1016.89 1016.83
1022.94 1023.01 1022.73 1022.09 1021.12 1019.91 1018.58 1017.32 1016.27 1015.58 1015.30 1015.44 1015.94 1016.70 1017.60 1018.51 1019.32 1019.97 1020.42 1020.71 1020.86 1020.93 1020.98 1021.04 1021.13 1021.23 1021.32 1021.38 1021.37 1021.28 1021.11 1020.86 1020.58 1020.26 1019.95 1019.65 1019.36 1019.09 1018.82 1018.54 1018.25 1017.96 1017.66 1017.37 1017.11 1016.88 1016.69 1016.54 1016.41
1023.17 1023.16 1022.76 1021.98 1020.84 1019.45 1017.99 1016.61 1015.49 1014.77 1014.52 1014.72 1015.31 1016.17 1017.17 1018.16 1019.03 1019.70 1020.15 1020.41 1020.52 1020.56 1020.58 1020.63 1020.73 1020.86 1021.01 1021.14 1021.20 1021.18 1021.07 1020.88 1020.62 1020.33 1020.03 1019.73 1019.45 1019.19 1018.92 1018.65 1018.36 1018.05 1017.71 1017.38 1017.05 1016.74 1016.46 1016.22 1016.01
1023.22 1023.13 1022.63 1021.72 1020.44 1018.93 1017.35 1015.90 1014.73 1014.01 1013.78 1014.03 1014.70 1015.64 1016.71 1017.76 1018.67 1019.36 1019.81 1020.04 1020.12 1020.12 1020.11 1020.15 1020.25 1020.41 1020.60 1020.78 1020.91 1020.95 1020.90 1020.75 1020.54 1020.28 1020.01 1019.74 1019.49 1019.25 1019.01 1018.76 1018.48 1018.16 1017.81 1017.43 1017.04 1016.65 1016.29 1015.96 1015.66
1023.14 1023.00 1022.42 1021.42 1020.06 1018.47 1016.82 1015.32 1014.13 1013.41 1013.20 1013.48 1014.17 1015.15 1016.25 1017.33 1018.24 1018.93 1019.37 1019.58 1019.64 1019.62 1019.59 1019.61 1019.72 1019.89 1020.11 1020.33 1020.50 1020.60 1020.59 1020.50 1020.33 1020.12 1019.89 1019.67 1019.46 1019.27 1019.07 1018.85 1018.59 1018.28 1017.92 1017.50 1017.06 1016.61 1016.16 1015.75 1015.37
1022.99 1022.81 1022.19 1021.14 1019.74 1018.13 1016.47 1014.96 1013.77 1013.04 1012.83 1013.10 1013.78 1014.73 1015.80 1016.85 1017.74 1018.39 1018.81 1019.00 1019.05 1019.02 1018.98 1019.01 1019.13 1019.32 1019.56 1019.81 1020.02 1020.15 1020.19 1020.15 1020.03 1019.87 1019.69 1019.52 1019.37 1019.22 1019.08 1018.90 1018.67 1018.37 1018.00 1017.56 1017.07 1016.56 1016.05 1015.56 1015.10
1022.76 1022.56 1021.92 1020.88 1019.50 1017.91 1016.29 1014.81 1013.64 1012.91 1012.66 1012.88 1013.49 1014.36 1015.34 1016.30 1017.11 1017.72 1018.09 1018.27 1018.32 1018.30 1018.29 1018.34 1018.48 1018.69 1018.96 1019.23 1019.47 1019.64 1019.72 1019.71 1019.64 1019.54 1019.42 1019.30 1019.21 1019.12 1019.02 1018.88 1018.67 1018.39 1018.01 1017.56 1017.04 1016.49 1015.93 1015.38 1014.85
1022.42 1022.18 1021.56 1020.54 1019.22 1017.71 1016.16 1014.75 1013.62 1012.89 1012.60 1012.74 1013.24 1013.97 1014.82 1015.65 1016.36 1016.89 1017.22 1017.39 1017.45 1017.46 1017.49 1017.59 1017.76 1018.02 1018.31 1018.61 1018.87 1019.07 1019.18 1019.22 1019.20 1019.14 1019.08 1019.02 1018.98 1018.94 1018.87 1018.77 1018.58 1018.31 1017.94 1017.47 1016.93 1016.35 1015.75 1015.16 1014.59
Thickness
5721 5725 5729 5729 5723 5718 5718 5724 5727 5725 5726 5729 5730 5730 5732 5731 5728 5721 5722 5727 5727 5726 5724 5721 5720 5719 5719 5718 5718 5717 5717 5717 5716 5716 5715 5715 5715 5714 5714 5714 5713 5713 5713 5713 5713 5713 5713 5712 5712
5717 5722 5723 5721 5714 5710 5715 5722 5721 5723 5724 5723 5723 5724 5725 5724 5723 5720 5720 5721 5722 5722 5720 5718 5715 5715 5715 5714 5714 5713 5713 5713 5712 5712 5711 5711 5710 5710 5710 5709 5709 5709 5709 5708 5709 5708 5708 5708 5708
5713 5717 5715 5712 5709 5713 5715 5717 5719 5717 5718 5718 5717 5718 5719 5717 5716 5716 5716 5716 5717 5717 5715 5713 5711 5710 5710 5710 5709 5709 5708 5708 5708 5707 5707 5706 5706 5705 5705 5704 5704 5703 5703 5703 5703 5703 5703 5703 5703
5708 5709 5708 5704 5703 5710 5713 5714 5712 5711 5710 5712 5713 5712 5712 5710 5711 5711 5711 5712 5712 5711 5710 5708 5705 5705 5705 5704 5704 5703 5703 5703 5703 5702 5702 5701 5701 5700 5700 5699 5699 5698 5698 5698 5698 5698 5698 5698 5698
5703 5701 5695 5695 5699 5704 5707 5706 5706 5707 5707 5707 5707 5707 5706 5704 5705 5706 5705 5706 5706 5705 5704 5702 5700 5699 5699 5698 5698 5697 5697 5697 5697 5697 5697 5696 5696 5695 5694 5694 5693 5693 5693 5692 5692 5692 5692 5692 5692
5692 5694 5690 5692 5696 5697 5699 5699 5700 5702 5702 5700 5701 5701 5701 5699 5698 5698 5699 5699 5699 5698 5697 5695 5693 5693 5692 5691 5691 5691 5691 5690 5691 5691 5691 5690 5690 5689 5688 5688 5687 5687 5687 5687 5686 5686 5686 5686 5686
5684 5684 5685 5690 5690 5690 5692 5693 5695 5697 5696 5696 5697 5696 5696 5694 5692 5691 5692 5692 5692 5691 5690 5689 5688 5687 5685 5685 5684 5684 5684 5684 5684 5684 5684 5684 5684 5683 5682 5681 5681 5680 5680 5680 5679 5679 5679 5679 5679
5679 5678 5676 5680 5683 5685 5686 5685 5687 5689 5690 5690 5690 5691 5690 5688 5685 5684 5684 5684 5684 5683 5682 5681 5681 5680 5679 5678 5677 5677 5677 5677 5677 5678 5678 5677 5677 5676 5675 5675 5674 5674 5673 5673 5672 5672 5672 5672 5672
5670 5668 5671 5676 5677 5679 5677 5677 5678 5679 5681 5680 5681 5683 5681 5679 5677 5677 5676 5676 5676 5675 5674 5673 5673 5672 5671 5671 5671 5671 5670 5670 5670 5671 5670 5670 5671 5670 5669 5668 5667 5667 5666 5666 5665 5665 5664 5664 5665
5661 5662 5668 5670 5671 5672 5669 5670 5670 5672 5673 5673 5673 5673 5672 5671 5670 5670 5670 5670 5669 5667 5666 5665 5664 5664 5663 5664 5664 5664 5664 5663 5664 5664 5664 5664 5664 5663 5662 5660 5659 5659 5659 5658 5658 5657 5657 5657 5659
5652 5655 5657 5656 5657 5659 5660 5660 5663 5665 5667 5670 5669 5668 5665 5664 5663 5663 5664 5664 5662 5661 5658 5657 5656 5655 5656 5656 5656 5656 5656 5656 5656 5656 5656 5655 5655 5654 5653 5653 5652 5651 5651 5651 5650 5650 5651 5651 5652
5641 5642 5644 5646 5644 5647 5650 5652 5654 5656 5661 5662 5663 5661 5658 5658 5658 5657 5656 5656 5655 5653 5651 5650 5649 5648 5647 5648 5648 5648 5648 5648 5648 5647 5647 5646 5646 5646 5645 5645 5644 5643 5643 5643 5643 5643 5643 5644 5644
5633 5633 5633 5633 5634 5637 5640 5642 5645 5649 5651 5653 5653 5652 5652 5652 5652 5651 5650 5648 5647 5645 5643 5642 5640 5640 5639 5639 5639 5640 5641 5640 5640 5639 5638 5637 5637 5637 5636 5635 5634 5634 5634 5634 5634 5635 5635 5636 5636
5624 5624 5625 5626 5627 5628 5630 5634 5635 5643 5643 5643 5643 5644 5644 5645 5644 5643 5642 5641 5639 5637 5636 5634 5632 5631 5630 5631 5632 5632 5632 5631 5631 5631 5630 5628 5627 5627 5627 5626 5625 5625 5625 5625 5625 5626 5626 5627 5628
5613 5615 5618 5618 5620 5620 5621 5627 5631 5636 5634 5635 5637 5637 5636 5636 5635 5635 5634 5633 5632 5629 5628 5626 5624 5623 5622 5622 5622 5623 5623 5622 5623 5622 5620 5619 5617 5617 5617 5617 5616 5615 5615 5615 5616 5617 5617 5618 5619
5607 5610 5614 5613 5612 5613 5614 5628 5630 5626 5626 5629 5630 5631 5629 5628 5628 5627 5626 5624 5623 5621 5619 5618 5616 5614 5613 5613 5612 5613 5614 5613 5613 5612 5611 5609 5608 5608 5608 5608 5607 5606 5605 5606 5607 5607 5608 5609 5611
5602 5607 5610 5608 5604 5606 5609 5621 5622 5618 5618 5621 5623 5624 5623 5622 5620 5619 5618 5616 5614 5612 5611 5609 5608 5606 5605 5604 5603 5603 5603 5603 5603 5602 5601 5600 5599 5599 5599 5598 5598 5597 5596 5597 5597 5598 5599 5600 5601
5600 5603 5602 5603 5599 5597 5601 5610 5614 5612 5611 5615 5616 5616 5615 5614 5613 5611 5609 5607 5605 5604 5602 5601 5599 5597 5596 5595 5595 5593 5593 5594 5593 5592 5591 5590 5590 5590 5589 5588 5588 5587 5587 5587 5588 5589 5589 5590 5592
5588 5590 5593 5592 5587 5588 5595 5601 5606 5607 5606 5608 5609 5609 5607 5606 5605 5602 5600 5598 5596 5595 5593 5592 5590 5588 5587 5586 5585 5584 5583 5582 5582 5582 5581 5581 5580 5580 5579 5579 5578 5578 5578 5578 5579 5579 5580 5581 5581
5575 5578 5583 5581 5574 5578 5585 5593 5602 5601 5600 5601 5602 5601 5599 5597 5596 5593 5591 5590 5588 5587 5585 5583 5582 5580 5578 5576 5575 5574 5572 5572 5572 5571 5570 5571 5570 5570 5569 5569 5568 5568 5568 5568 5569 5569 5570 5571 5571
5566 5570 5573 5571 5568 5568 5571 5593 5600 5597 5594 5592 5593 5593 5591 5590 5589 5586 5584 5582 5580 5578 5575 5574 5572 5570 5568 5567 5565 5564 5563 5562 5562 5562 5561 5559 5560 5559 5559 5559 5558 5558 5558 5558 5559 5559 5560 5561 5561
5562 5558 5556 5555 5560 5567 5564 5580 5600 5594 5590 5587 5587 5585 5584 5582 5580 5577 5575 5573 5570 5568 5565 5564 5562 5560 5558 5558 5557 5557 5557 5556 5555 5553 5551 5550 5549 5548 5548 5548 5548 5548 5549 5549 5548 5548 5549 5550 5552
5549 5545 5545 5545 5547 5550 5556 5557 5590 5584 5584 5585 5582 5579 5576 5573 5570 5568 5566 5563 5560 5558 5556 5554 5553 5551 5549 5548 5548 5548 5548 5547 5545 5544 5542 5541 5540 5539 5538 5538 5538 5538 5539 5539 5538 5538 5539 5540 5541
5533 5535 5535 5534 5538 5542 5553 5555 5579 5583 5581 5581 5577 5572 5567 5563 5560 5558 5555 5552 5550 5547 5546 5545 5544 5542 5541 5539 5539 5539 5539 5537 5535 5535 5534 5533 5531 5529 5528 5527 5527 5527 5528 5528 5528 5528 5528 5529 5530
5527 5533 5537 5539 5539 5553 5544 5546 5568 5575 5570 5568 5566 5562 5558 5553 5550 5548 5546 5544 5540 5538 5536 5535 5535 5534 5532 5531 5530 5530 5529 5527 5527 5526 5525 5524 5521 5519 5518 5517 5517 5517 5518 5518 5518 5518 5518 5518 5519
5522 5529 5534 5540 5548 5554 5533 5544 5564 5560 5555 5553 5551 5550 5546 5544 5540 5537 5536 5534 5531 5529 5527 5526 5526 5525 5523 5522 5521 5520 5519 5518 5517 5515 5515 5514 5512 5510 5508 5508 5508 5507 5508 5508 5508 5508 5508 5508 5508
5514 5518 5518 5520 5510 5522 5545 5546 5551 5550 5546 5543 5542 5540 5538 5535 5531 5528 5526 5524 5521 5519 5518 5517 5516 5515 5514 5513 5511 5510 5510 5508 5507 5506 5505 5504 5502 5500 5499 5498 5498 5498 5498 5498 5498 5498 5498 5497 5497
5504 5507 5505 5509 5517 5532 5543 5541 5549 5545 5543 5537 5533 5531 5529 5524 5520 5517 5515 5513 5510 5508 5507 5506 5506 5504 5503 5503 5502 5501 5500 5498 5497 5496 5495 5494 5492 5491 5490 5490 5490 5489 5489 5488 5489 5488 5488 5487 5486
5489 5489 5495 5502 5504 5520 5532 5543 5537 5533 5530 5527 5524 5521 5517 5512 5509 5506 5504 5503 5500 5498 5497 5496 5495 5494 5494 5493 5492 5491 5490 5488 5487 5486 5485 5484 5483 5482 5481 5481 5480 5480 5479 5479 5478 5478 5476 5476 5476
5483 5489 5488 5495 5493 5494 5513 5528 5524 5517 5514 5513 5512 5508 5504 5500 5497 5494 5493 5492 5491 5489 5488 5487 5486 5485 5484 5482 5481 5480 5479 5477 5476 5476 5475 5474 5473 5473 5472 5471 5470 5470 5469 5469 5468 5468 5466 5466 5465